When you browse on this site, cookies collect data to enhance your experience and personalize the content and advertising you see.
Visit our Privacy Policy to learn more. By continuing to use the site, you agree to this use of cookies and data.
  • In Czech Republic
  • List of Countries
  • For 7 days
  • Water Temperature
  • Weather Map
  • Weather Widgets
  • user-avatar
    Login

    Hourly Weather Cabrero

    Today, 9 April, Thursday

    Time Temperature Precipitation Wind Pressure Humidity
    00:00 +10°C° 0 mm 1 mps 749 mmHg 88%
    01:00 +8°C° 0 mm 0 mps 749 mmHg 92%
    02:00 +8°C° 0 mm 0 mps 749 mmHg 93%
    03:00 +8°C° 0 mm 0 mps 749 mmHg 93%
    04:00 +8°C° 0 mm 0 mps 749 mmHg 94%
    05:00 +8°C° 0 mm 0 mps 749 mmHg 93%
    06:00 +9°C° 0 mm 0 mps 749 mmHg 92%
    07:00 +9°C° 0 mm 0 mps 749 mmHg 90%
    08:00 +13°C° 0 mm 0 mps 749 mmHg 75%
    09:00 +16°C° 0 mm 0 mps 749 mmHg 60%
    10:00 +22°C° 0 mm 1 mps 749 mmHg 45%
    11:00 +24°C° 0 mm 1 mps 749 mmHg 39%
    12:00 +26°C° 0 mm 1 mps 749 mmHg 32%
    13:00 +29°C° 0 mm 1 mps 749 mmHg 25%
    14:00 +28°C° 0 mm 2 mps 748 mmHg 28%
    15:00 +27°C° 0 mm 2 mps 748 mmHg 31%
    16:00 +26°C° 0 mm 3 mps 748 mmHg 34%
    17:00 +21°C° 0 mm 2 mps 749 mmHg 51%
    18:00 +17°C° 0 mm 2 mps 749 mmHg 67%
    19:00 +13°C° 0 mm 1 mps 749 mmHg 84%
    20:00 +12°C° 0 mm 1 mps 749 mmHg 86%
    21:00 +12°C° 0 mm 1 mps 749 mmHg 89%
    22:00 +11°C° 0 mm 1 mps 749 mmHg 91%
    23:00 +11°C° 0 mm 1 mps 749 mmHg 93%

    Tomorrow, 10 April, Friday

    Time Temperature Precipitation Wind Pressure Humidity
    00:00 +10°C° 0 mm 1 mps 749 mmHg 94%
    01:00 +10°C° 0 mm 1 mps 749 mmHg 95%
    02:00 +10°C° 0 mm 1 mps 749 mmHg 96%
    03:00 +10°C° 0 mm 1 mps 749 mmHg 96%
    04:00 +8°C° 0 mm 2 mps 749 mmHg 96%
    05:00 +9°C° 0 mm 1 mps 749 mmHg 95%
    06:00 +10°C° 0 mm 1 mps 749 mmHg 94%
    07:00 +10°C° 0 mm 1 mps 749 mmHg 93%
    08:00 +13°C° 0 mm 1 mps 749 mmHg 77%
    09:00 +17°C° 0 mm 2 mps 749 mmHg 61%
    10:00 +21°C° 0 mm 2 mps 749 mmHg 45%
    11:00 +24°C° 0 mm 2 mps 749 mmHg 37%
    12:00 +26°C° 0 mm 2 mps 748 mmHg 29%
    13:00 +29°C° 0 mm 2 mps 748 mmHg 22%
    14:00 +28°C° 0 mm 2 mps 748 mmHg 26%
    15:00 +27°C° 0 mm 3 mps 748 mmHg 30%
    16:00 +26°C° 0 mm 3 mps 748 mmHg 35%
    17:00 +22°C° 0 mm 3 mps 749 mmHg 49%
    18:00 +20°C° 0 mm 2 mps 749 mmHg 64%
    19:00 +17°C° 0 mm 2 mps 749 mmHg 78%
    20:00 +16°C° 0 mm 3 mps 750 mmHg 76%
    21:00 +16°C° 0 mm 3 mps 750 mmHg 73%
    22:00 +14°C° 0 mm 3 mps 750 mmHg 71%
    23:00 +13°C° 0 mm 3 mps 750 mmHg 74%

    Day after tomorrow, 11 April, Saturday

    Time Temperature Precipitation Wind Pressure Humidity
    00:00 +13°C° 0 mm 3 mps 750 mmHg 77%
    01:00 +12°C° 0 mm 4 mps 750 mmHg 80%
    02:00 +11°C° 0 mm 3 mps 750 mmHg 82%
    03:00 +11°C° 0 mm 3 mps 750 mmHg 83%
    04:00 +10°C° 0 mm 3 mps 750 mmHg 84%
    05:00 +10°C° 0 mm 3 mps 750 mmHg 82%
    06:00 +10°C° 0 mm 3 mps 750 mmHg 81%
    07:00 +10°C° 0 mm 3 mps 750 mmHg 79%
    08:00 +12°C° 0 mm 4 mps 751 mmHg 67%
    09:00 +14°C° 0 mm 4 mps 751 mmHg 54%
    10:00 +17°C° 0 mm 4 mps 751 mmHg 42%
    11:00 +19°C° 0 mm 4 mps 750 mmHg 36%
    12:00 +20°C° 0 mm 4 mps 750 mmHg 30%
    13:00 +22°C° 0 mm 4 mps 750 mmHg 24%
    14:00 +21°C° 0 mm 4 mps 750 mmHg 23%
    15:00 +21°C° 0 mm 4 mps 750 mmHg 23%
    16:00 +21°C° 0 mm 3 mps 750 mmHg 22%
    17:00 +18°C° 0 mm 3 mps 750 mmHg 27%
    18:00 +16°C° 0 mm 3 mps 750 mmHg 32%
    19:00 +12°C° 0 mm 3 mps 751 mmHg 36%
    20:00 +11°C° 0 mm 4 mps 751 mmHg 46%
    21:00 +10°C° 0 mm 4 mps 751 mmHg 55%
    22:00 +8°C° 0 mm 4 mps 751 mmHg 64%
    23:00 +8°C° 0 mm 4 mps 751 mmHg 66%

    12 April, Sunday

    Time Temperature Precipitation Wind Pressure Humidity
    00:00 +8°C° 0 mm 4 mps 751 mmHg 67%
    01:00 +8°C° 0 mm 3 mps 751 mmHg 69%
    02:00 +8°C° 0 mm 3 mps 751 mmHg 69%
    03:00 +8°C° 0 mm 3 mps 751 mmHg 69%
    04:00 +7°C° 0 mm 3 mps 752 mmHg 70%
    05:00 +7°C° 0 mm 3 mps 752 mmHg 72%
    06:00 +5°C° 0 mm 3 mps 752 mmHg 74%
    07:00 +6°C° 0 mm 2 mps 753 mmHg 76%
    08:00 +9°C° 0 mm 3 mps 752 mmHg 64%
    09:00 +12°C° 0 mm 3 mps 752 mmHg 51%
    10:00 +15°C° 0 mm 4 mps 752 mmHg 38%
    11:00 +17°C° 0 mm 4 mps 752 mmHg 34%
    12:00 +19°C° 0 mm 4 mps 752 mmHg 30%
    13:00 +21°C° 0 mm 3 mps 752 mmHg 26%
    14:00 +21°C° 0 mm 3 mps 752 mmHg 26%
    15:00 +20°C° 0 mm 3 mps 752 mmHg 27%
    16:00 +20°C° 0 mm 2 mps 752 mmHg 28%
    17:00 +17°C° 0 mm 2 mps 753 mmHg 36%
    18:00 +15°C° 0 mm 2 mps 753 mmHg 44%
    19:00 +12°C° 0 mm 2 mps 754 mmHg 53%
    20:00 +10°C° 0 mm 2 mps 754 mmHg 55%
    21:00 +10°C° 0 mm 3 mps 754 mmHg 58%
    22:00 +9°C° 0 mm 3 mps 754 mmHg 61%
    23:00 +8°C° 0 mm 3 mps 754 mmHg 67%

    13 April, Monday

    Time Temperature Precipitation Wind Pressure Humidity
    00:00 +8°C° 0 mm 3 mps 754 mmHg 73%
    01:00 +7°C° 0 mm 3 mps 754 mmHg 79%
    02:00 +5°C° 0 mm 3 mps 754 mmHg 82%
    03:00 +6°C° 0 mm 2 mps 754 mmHg 84%
    04:00 +5°C° 0 mm 2 mps 754 mmHg 87%
    05:00 +6°C° 0 mm 2 mps 754 mmHg 84%
    06:00 +6°C° 0 mm 2 mps 754 mmHg 82%
    07:00 +5°C° 0 mm 3 mps 754 mmHg 79%
    08:00 +9°C° 0 mm 3 mps 754 mmHg 65%
    09:00 +13°C° 0 mm 4 mps 753 mmHg 51%
    10:00 +17°C° 0 mm 4 mps 753 mmHg 38%
    11:00 +19°C° 0 mm 4 mps 753 mmHg 34%
    12:00 +20°C° 0 mm 4 mps 752 mmHg 30%
    13:00 +22°C° 0 mm 4 mps 752 mmHg 26%
    14:00 +21°C° 0 mm 4 mps 752 mmHg 27%
    15:00 +21°C° 0 mm 4 mps 751 mmHg 28%
    16:00 +21°C° 0 mm 4 mps 751 mmHg 29%
    17:00 +19°C° 0 mm 4 mps 751 mmHg 35%
    18:00 +17°C° 0 mm 4 mps 751 mmHg 42%
    19:00 +13°C° 0 mm 3 mps 752 mmHg 48%
    20:00 +12°C° 0 mm 3 mps 752 mmHg 54%
    21:00 +11°C° 0 mm 3 mps 752 mmHg 59%
    22:00 +10°C° 0 mm 3 mps 752 mmHg 65%
    23:00 +9°C° 0 mm 3 mps 752 mmHg 70%

    14 April, Tuesday

    Time Temperature Precipitation Wind Pressure Humidity
    00:00 +8°C° 0 mm 2 mps 752 mmHg 75%
    01:00 +8°C° 0 mm 2 mps 752 mmHg 81%
    02:00 +7°C° 0 mm 2 mps 752 mmHg 84%
    03:00 +6°C° 0 mm 2 mps 752 mmHg 87%
    04:00 +5°C° 0 mm 2 mps 751 mmHg 89%
    05:00 +7°C° 0 mm 1 mps 751 mmHg 87%
    06:00 +7°C° 0 mm 1 mps 751 mmHg 85%
    07:00 +7°C° 0 mm 1 mps 751 mmHg 83%
    08:00 +11°C° 0 mm 1 mps 751 mmHg 66%
    09:00 +15°C° 0 mm 2 mps 751 mmHg 49%
    10:00 +19°C° 0 mm 2 mps 751 mmHg 32%
    11:00 +23°C° 0 mm 1 mps 750 mmHg 26%
    12:00 +26°C° 0 mm 1 mps 750 mmHg 21%
    13:00 +29°C° 0 mm 1 mps 749 mmHg 15%
    14:00 +28°C° 0 mm 1 mps 749 mmHg 16%
    15:00 +27°C° 0 mm 1 mps 749 mmHg 16%
    16:00 +27°C° 0 mm 1 mps 749 mmHg 17%
    17:00 +23°C° 0 mm 1 mps 749 mmHg 24%
    18:00 +19°C° 0 mm 1 mps 749 mmHg 31%
    19:00 +15°C° 0 mm 1 mps 749 mmHg 38%
    20:00 +14°C° 0 mm 1 mps 749 mmHg 41%
    21:00 +13°C° 0 mm 1 mps 750 mmHg 44%
    22:00 +12°C° 0 mm 1 mps 750 mmHg 47%
    23:00 +11°C° 0 mm 1 mps 750 mmHg 49%
    Show more